When you browse on this site, cookies collect data to enhance your experience and personalize the content and advertising you see.
Visit our Privacy Policy to learn more. By continuing to use the site, you agree to this use of cookies and data.
  • în România
  • Lista ţărilor
  • Pe 7 zile
  • Temperatura apei
  • Hartă satelitară
  • Meteo pe hartă
  • Widget-uri
  • user-avatar
    Intrare

    Meteo pe oră la Arpajon-sur-Cere

    Astăzi, 17 Februarie, Duminică

    Timp Temperatura Precipitaţii Vânt Presiune Umiditate
    00:00 +4°C° 0 mm 2 m/s 706 mmHg 45%
    01:00 +4°C° 0 mm 2 m/s 706 mmHg 45%
    02:00 +3°C° 0 mm 2 m/s 705 mmHg 45%
    03:00 +3°C° 0 mm 2 m/s 705 mmHg 46%
    04:00 +3°C° 0 mm 2 m/s 705 mmHg 48%
    05:00 +3°C° 0 mm 2 m/s 705 mmHg 49%
    06:00 +3°C° 0 mm 2 m/s 705 mmHg 51%
    07:00 +4°C° 0 mm 2 m/s 705 mmHg 50%
    08:00 +6°C° 0 mm 2 m/s 705 mmHg 49%
    09:00 +8°C° 0 mm 2 m/s 705 mmHg 48%
    10:00 +9°C° 0 mm 3 m/s 705 mmHg 47%
    11:00 +11°C° 0 mm 3 m/s 705 mmHg 46%
    12:00 +12°C° 0 mm 3 m/s 705 mmHg 44%
    13:00 +12°C° 0 mm 3 m/s 705 mmHg 47%
    14:00 +12°C° 0 mm 3 m/s 704 mmHg 49%
    15:00 +12°C° 0 mm 3 m/s 704 mmHg 52%
    16:00 +10°C° 0 mm 3 m/s 704 mmHg 60%
    17:00 +8°C° 0 mm 2 m/s 703 mmHg 69%
    18:00 +6°C° 0 mm 2 m/s 703 mmHg 77%
    19:00 +5°C° 0 mm 2 m/s 703 mmHg 77%
    20:00 +5°C° 0 mm 2 m/s 703 mmHg 77%
    21:00 +4°C° 0 mm 2 m/s 703 mmHg 77%
    22:00 +4°C° 0 mm 2 m/s 703 mmHg 79%
    23:00 +4°C° 0 mm 2 m/s 703 mmHg 81%

    Mâine, 18 Februarie, Luni

    Timp Temperatura Precipitaţii Vânt Presiune Umiditate
    00:00 +3°C° 0 mm 2 m/s 703 mmHg 82%
    01:00 +3°C° 0 mm 2 m/s 703 mmHg 84%
    02:00 +3°C° 0 mm 2 m/s 703 mmHg 85%
    03:00 +3°C° 0 mm 2 m/s 703 mmHg 86%
    04:00 +3°C° 0 mm 2 m/s 703 mmHg 87%
    05:00 +3°C° 0 mm 2 m/s 703 mmHg 88%
    06:00 +3°C° 0 mm 2 m/s 702 mmHg 89%
    07:00 +4°C° 0 mm 2 m/s 703 mmHg 85%
    08:00 +4°C° 0 mm 3 m/s 703 mmHg 81%
    09:00 +7°C° 0 mm 3 m/s 703 mmHg 76%
    10:00 +8°C° 0 mm 3 m/s 703 mmHg 72%
    11:00 +9°C° 0 mm 3 m/s 703 mmHg 69%
    12:00 +10°C° 0 mm 3 m/s 703 mmHg 65%
    13:00 +10°C° 0 mm 3 m/s 703 mmHg 65%
    14:00 +10°C° 0 mm 3 m/s 702 mmHg 65%
    15:00 +10°C° 0 mm 3 m/s 702 mmHg 66%
    16:00 +8°C° 0 mm 2 m/s 702 mmHg 73%
    17:00 +6°C° 0 mm 2 m/s 702 mmHg 81%
    18:00 +5°C° 0 mm 1 m/s 702 mmHg 89%
    19:00 +5°C° 0 mm 1 m/s 702 mmHg 91%
    20:00 +4°C° 0 mm 1 m/s 703 mmHg 92%
    21:00 +4°C° 0 mm 1 m/s 703 mmHg 94%
    22:00 +3°C° 0 mm 1 m/s 703 mmHg 95%
    23:00 +3°C° 0 mm 1 m/s 703 mmHg 95%

    Poimâine, 19 Februarie, Marţi

    Timp Temperatura Precipitaţii Vânt Presiune Umiditate
    00:00 +3°C° 0 mm 1 m/s 703 mmHg 96%
    01:00 +3°C° 0 mm 1 m/s 703 mmHg 95%
    02:00 +2°C° 0 mm 1 m/s 703 mmHg 95%
    03:00 +2°C° 0 mm 1 m/s 703 mmHg 95%
    04:00 +2°C° 0 mm 1 m/s 703 mmHg 95%
    05:00 +2°C° 0 mm 1 m/s 704 mmHg 95%
    06:00 +2°C° 0 mm 1 m/s 704 mmHg 95%
    07:00 +4°C° 0 mm 1 m/s 704 mmHg 88%
    08:00 +5°C° 0 mm 0 m/s 705 mmHg 81%
    09:00 +6°C° 0 mm 0 m/s 705 mmHg 74%
    10:00 +8°C° 0 mm 0 m/s 705 mmHg 68%
    11:00 +10°C° 0 mm 0 m/s 705 mmHg 62%
    12:00 +12°C° 0 mm 0 m/s 706 mmHg 56%
    13:00 +12°C° 0 mm 0 m/s 705 mmHg 56%
    14:00 +12°C° 0 mm 0 m/s 705 mmHg 55%
    15:00 +12°C° 0 mm 0 m/s 704 mmHg 54%
    16:00 +10°C° 0 mm 0 m/s 704 mmHg 65%
    17:00 +7°C° 0 mm 0 m/s 704 mmHg 75%
    18:00 +5°C° 0 mm 0 m/s 703 mmHg 85%
    19:00 +4°C° 0 mm 0 m/s 704 mmHg 86%
    20:00 +5°C° 0 mm 1 m/s 704 mmHg 87%
    21:00 +5°C° 0 mm 1 m/s 704 mmHg 88%
    22:00 +4°C° 0 mm 1 m/s 704 mmHg 88%
    23:00 +4°C° 0 mm 1 m/s 704 mmHg 87%

    20 Februarie, Miercuri

    Timp Temperatura Precipitaţii Vânt Presiune Umiditate
    00:00 +4°C° 0 mm 1 m/s 704 mmHg 87%
    01:00 +3°C° 0 mm 1 m/s 704 mmHg 86%
    02:00 +3°C° 0 mm 1 m/s 704 mmHg 86%
    03:00 +3°C° 0 mm 1 m/s 704 mmHg 85%
    04:00 +3°C° 0 mm 1 m/s 704 mmHg 85%
    05:00 +3°C° 0 mm 1 m/s 704 mmHg 85%
    06:00 +3°C° 0 mm 1 m/s 704 mmHg 84%
    07:00 +5°C° 0 mm 1 m/s 705 mmHg 77%
    08:00 +7°C° 0 mm 1 m/s 706 mmHg 70%
    09:00 +8°C° 0 mm 0 m/s 706 mmHg 64%
    10:00 +9°C° 0 mm 0 m/s 707 mmHg 57%
    11:00 +12°C° 0 mm 1 m/s 707 mmHg 51%
    12:00 +14°C° 0 mm 1 m/s 707 mmHg 45%
    13:00 +14°C° 0 mm 1 m/s 707 mmHg 45%
    14:00 +13°C° 0 mm 0 m/s 707 mmHg 44%
    15:00 +13°C° 0 mm 0 m/s 706 mmHg 44%
    16:00 +11°C° 0 mm 0 m/s 706 mmHg 54%
    17:00 +8°C° 0 mm 0 m/s 706 mmHg 63%
    18:00 +5°C° 0 mm 0 m/s 706 mmHg 73%
    19:00 +5°C° 0 mm 0 m/s 706 mmHg 75%
    20:00 +5°C° 0 mm 0 m/s 707 mmHg 77%
    21:00 +5°C° 0 mm 1 m/s 707 mmHg 79%
    22:00 +5°C° 0 mm 1 m/s 707 mmHg 79%
    23:00 +4°C° 0 mm 1 m/s 707 mmHg 79%

    21 Februarie, Joi

    Timp Temperatura Precipitaţii Vânt Presiune Umiditate
    00:00 +4°C° 0 mm 1 m/s 707 mmHg 79%
    01:00 +4°C° 0 mm 1 m/s 707 mmHg 78%
    02:00 +4°C° 0 mm 1 m/s 707 mmHg 77%
    03:00 +4°C° 0 mm 1 m/s 707 mmHg 76%
    04:00 +3°C° 0 mm 1 m/s 707 mmHg 76%
    05:00 +3°C° 0 mm 1 m/s 707 mmHg 75%
    06:00 +3°C° 0 mm 1 m/s 707 mmHg 74%
    07:00 +5°C° 0 mm 1 m/s 708 mmHg 68%
    08:00 +7°C° 0 mm 1 m/s 708 mmHg 62%
    09:00 +9°C° 0 mm 1 m/s 709 mmHg 57%
    10:00 +10°C° 0 mm 0 m/s 709 mmHg 50%
    11:00 +13°C° 0 mm 0 m/s 709 mmHg 44%
    12:00 +15°C° 0 mm 0 m/s 710 mmHg 38%
    13:00 +15°C° 0 mm 0 m/s 709 mmHg 38%
    14:00 +15°C° 0 mm 0 m/s 709 mmHg 38%
    15:00 +14°C° 0 mm 0 m/s 709 mmHg 39%
    16:00 +12°C° 0 mm 0 m/s 709 mmHg 48%
    17:00 +9°C° 0 mm 0 m/s 709 mmHg 58%
    18:00 +7°C° 0 mm 0 m/s 709 mmHg 67%
    19:00 +6°C° 0 mm 0 m/s 709 mmHg 69%
    20:00 +6°C° 0 mm 1 m/s 709 mmHg 70%
    21:00 +6°C° 0 mm 1 m/s 709 mmHg 72%
    22:00 +5°C° 0 mm 1 m/s 709 mmHg 72%
    23:00 +5°C° 0 mm 1 m/s 710 mmHg 72%

    22 Februarie, Vineri

    Timp Temperatura Precipitaţii Vânt Presiune Umiditate
    00:00 +5°C° 0 mm 1 m/s 710 mmHg 72%
    01:00 +5°C° 0 mm 1 m/s 710 mmHg 71%
    02:00 +5°C° 0 mm 1 m/s 710 mmHg 71%
    03:00 +4°C° 0 mm 1 m/s 709 mmHg 71%
    04:00 +4°C° 0 mm 1 m/s 709 mmHg 72%
    05:00 +4°C° 0 mm 1 m/s 709 mmHg 73%
    06:00 +4°C° 0 mm 1 m/s 709 mmHg 74%
    07:00 +6°C° 0 mm 1 m/s 710 mmHg 68%
    08:00 +7°C° 0 mm 1 m/s 710 mmHg 62%
    09:00 +9°C° 0 mm 1 m/s 710 mmHg 56%
    10:00 +12°C° 0 mm 1 m/s 710 mmHg 50%
    11:00 +14°C° 0 mm 1 m/s 710 mmHg 44%
    12:00 +16°C° 0 mm 1 m/s 710 mmHg 38%
    13:00 +16°C° 0 mm 1 m/s 710 mmHg 39%
    14:00 +16°C° 0 mm 1 m/s 710 mmHg 40%
    15:00 +16°C° 0 mm 1 m/s 709 mmHg 41%
    16:00 +14°C° 0 mm 1 m/s 709 mmHg 51%
    17:00 +11°C° 0 mm 1 m/s 709 mmHg 61%
    18:00 +9°C° 0 mm 1 m/s 708 mmHg 71%
    19:00 +8°C° 0 mm 1 m/s 708 mmHg 73%
    20:00 +7°C° 0 mm 1 m/s 708 mmHg 76%
    21:00 +6°C° 0 mm 1 m/s 708 mmHg 78%
    22:00 +6°C° 0 mm 1 m/s 708 mmHg 79%
    23:00 +6°C° 0 mm 1 m/s 708 mmHg 79%
    Arată mai mult